Location: Klein M�hlingen
(51.9472°N, 11.7453°E)
Time: 02:26:12
(UTC+00:00)

SL-8 Rocket - Pass Details

Date: 09 April 2020
Orbit: 957 x 991 km, 82.9° (Epoch: 04 June)

Event Time Altitude Azimuth Distance (km) Brightness Sun altitude
Rises 19:20:21 0° 350° (N) 3,710 7.7 -12.1°
Reaches altitude 10° 19:22:54 10° 353° (N) 2,761 6.9 -12.4°
Maximum altitude 19:29:14 70° 77° (ENE) 1,053 4.0 -13.3°
Enters shadow 19:35:18 11° 161° (SSE) 2,659 5.8 -14.1°
